Powrót do katalogu

STARLINK-32958

AktywnyŁącznośćVLEO
NORAD 63563·PAYLOAD·🇺🇸 United States

Wystrzelony Apr 13, 2025 z Cape Canaveral Space Force Station

Loading…

Następne Przeloty (najbliższe 24 godziny)

TLE

ŚwieżeSource: CelesTrak SupGP

Epoka: Sep 14, 2026, 23:00 UTC

1 63563C 25075R   26257.95881944  .00035068  00000+0  12703-2 0  2575
2 63563  43.0000 281.7323 0001423 263.0991 101.2598 15.27556031    10

Śledź STARLINK-32958 w czasie rzeczywistym z AllMySat

Download on the App Store